Regional Weather Roundup
Issued by NWS

Home | Current Version | Previous Version | Graphics & Text | Print | Product List | Glossary On
Versions: 1 2 3 4 5 6 7 8 9 10 11 12 13 14 15 16 17 18 19 20 21 22 23 24 25 26 27 28 29 30 31 32 33 34 35 36 37 38 39 40 41 42 43 44 45 46 47 48 49 50
000
ASUS45 KSLC 032110
RWRUT

UTAH REGIONAL WEATHER ROUNDUP
NATIONAL WEATHER SERVICE SALT LAKE CITY UT
300 PM MDT FRI JUL 03 2015

UTZ001>011-023>025-032200-

NORTHERN UTAH

CITY           SKY/WX    TMP DP  RH WIND       PRES   REMARKS
BRIGHAM CITY   SUNNY     95  31  10 S6        29.98F
HILL AFB       SUNNY     93  44  18 VRB3      30.03F
LOGAN          SUNNY     94  43  17 VRB3      29.98F HX  90
OGDEN          SUNNY     95  43  16 W9        29.99F HX  91
PROVO AIRPORT  MOSUNNY   97  46  17 SW8       30.00F HX  93
SALT LAKE CITY PTSUNNY   98  39  13 NW7       29.96F HX  93
VERNAL         MOSUNNY   91  39  16 VRB5      30.04F
WENDOVER       PTSUNNY   97  43  15 S8        29.98F HX  92
HEBER CITY     MOSUNNY   93  36  13 N3        30.07F
WEST JORDAN    SUNNY     95  43  16 NW9G16    30.01F HX  91

$$

UTZ012>022-026-027-032200-

SOUTHERN/CENTRAL UTAH

CITY           SKY/WX    TMP DP  RH WIND       PRES   REMARKS
BLANDING       MOSUNNY   84  51  31 SW7       30.20F
BRYCE CANYON   PTSUNNY   80  47  31 W10       30.27F
CEDAR CITY     PTSUNNY   90  38  16 CALM      30.10F
DELTA          MOSUNNY   95  35  12 CALM      30.01F HX  90
HANKSVILLE     MOSUNNY   97  41  14 S9        29.97F HX  92
MILFORD        CLOUDY    93  43  17 NE7       30.05F
MOAB/CYNLANDS  SUNNY     99  43  14 MISG      29.94F HX  95
PRICE          MOSUNNY   94  38  14 VRB5      30.07F
ST GEORGE      PTCLDY   100  54  20 SE5       29.88F HX  98
KANAB          PTSUNNY   79  54  41 W10G16    30.11R

$$

REGIONAL REPORTS     COLORADO/ARIZONA

CITY           SKY/WX    TMP DP  RH WIND       PRES   REMARKS
CRAIG, CO      SUNNY     89  41  18 VRB5      30.12F
GRAND JUNCTION MOSUNNY   95  49  20 W12G18    29.98F HX  92
RIFLE          TSTM      82  53  36 NW16G22   30.06S
MONTROSE       MOSUNNY   86  51  29 W8        30.08F
CORTEZ         SUNNY     89  49  25 SW9       30.12F
PAGE, AZ       PTSUNNY   93  48  21 VRB6      29.99F
GRAND CANYON   PTSUNNY   79  52  38 SE3       30.22S
KINGMAN        SUNNY    100  46  16 SW14      29.98F HX  96
FLAGSTAFF      CLOUDY    78  50  37 VRB6      30.26F

$$

REGIONAL REPORTS    NEVADA/IDAHO/WYOMING

CITY           SKY/WX    TMP DP  RH WIND       PRES   REMARKS
LAS VEGAS, NV  PTSUNNY  106  45  12 SW14      29.79F HX 101
ELY            LGT RAIN  74  50  42 S17G30    30.17R
ELKO           MOSUNNY   85  52  32 SW8       30.07F
POCATELLO, ID  SUNNY     96  44  16 SW16      29.98F HX  92
BURLEY         SUNNY     94  43  17 W9        29.95F HX  90
EVANSTON, WY   MOSUNNY   86  37  17 NW5       30.21F
ROCK SPRINGS   SUNNY     84  32  15 VRB3      30.17F
KEMMERER       MOSUNNY   86  32  14 W13G23    30.22F

$$



USA.gov is the U.S. government's official web portal to all federal, state and local government web resources and services.